Regional Weather Roundup
Issued by NWS Charleston, SC

Current Version | Previous Version | Graphics & Text | Print | Product List | Glossary On
Versions: 1 2 3 4 5 6 7 8 9 10 11 12 13 14 15 16 17 18 19 20 21 22 23 24 25 26 27 28 29 30 31 32 33 34 35 36 37 38 39 40 41 42 43 44 45 46 47 48 49 50
000 ASUS42 KCHS 291826 RWRCHS REGIONAL WEATHER ROUNDUP NATIONAL WEATHER SERVICE CHARLESTON SC 200 PM EDT WED JUL 29 2015 NOTE: "FAIR" INDICATES FEW OR NO CLOUDS BELOW 12,000 FEET WITH NO SIGNIFICANT WEATHER AND/OR OBSTRUCTIONS TO VISIBILITY. NOT ALL STATIONS ARE QUALITY CONTROLLED BY THE NATIONAL WEATHER SERVICE. USE DATA WITH CAUTION...ESPECIALLY DEWPOINT OBSERVATIONS. SCZ027-030-031-034>040-042>050-291900- ...SOUTHEAST SOUTH CAROLINA... CITY SKY/WX TMP DP RH WIND PRES REMARKS N CHARLESTON MOSUNNY 91 72 53 CALM 29.96F HX 98 6HR MIN TEMP: 78; 6HR MAX TEMP: 92; WATERFRONT PRK N/A 85 77 76 SE10 29.95F HX 95 MOUNT PLEASANT LGT RAIN 88 77 70 SE8 29.97S HX 100 JOHNS ISLAND FAIR 88 77 70 E8 29.96F HX 100 PINOPOLIS NOT AVBL MONCKS CORNER FAIR 93 70 46 E3 29.96F HX 99 SUMMERVILLE FAIR 91 70 49 CALM 29.97F HX 97 BEAUFORT MCAS MOSUNNY 91 72 53 VRB3 29.97F HX 98 6HR MIN TEMP: 79; 6HR MAX TEMP: 92; BEAUFORT ARPT FAIR 90 73 58 CALM 29.95F HX 98 HILTON HEAD IS MOSUNNY 88 77 70 E6 29.98F HX 100 WALTERBORO CLEAR 97 55 24 N7 29.97S HX 95 ALLENDALE FAIR 93 70 46 CALM 29.95F HX 99 ...SOUTHERN MIDLANDS AND PEE DEE... CITY SKY/WX TMP DP RH WIND PRES REMARKS GEORGETOWN NOT AVBL KINGSTREE NOT AVBL ORANGEBURG SUNNY 93 69 45 VRB5 29.97F HX 98 6HR MIN TEMP: 77; 6HR MAX TEMP: 94; BARNWELL FAIR 93 72 49 CALM 29.96F HX 100 AIKEN NOT AVBL MANNING MOCLDY 91 64 40 S8 29.96F HX 93 COLUMBIA MOSUNNY 95 68 41 MISG 29.96F HX 99 6HR MIN TEMP: 78; 6HR MAX TEMP: 95; SUMTER MOSUNNY 95 66 38 VRB5 29.95F HX 98 6HR MIN TEMP: 77; 6HR MAX TEMP: 95; FLORENCE SUNNY 94 65 38 E7 29.97F HX 96 6HR MIN TEMP: 77; 6HR MAX TEMP: 95; MYRTLE BEACH MOSUNNY 88 72 58 SE9 29.99F HX 94 N MYRTLE BEACH SUNNY 87 75 67 E9 29.98F HX 96 6HR MIN TEMP: 76; 6HR MAX TEMP: 88; $$ GAZ063-065-086>088-099>101-113>116-118-119-134>141-150-291900- ...SOUTHEAST GEORGIA... CITY SKY/WX TMP DP RH WIND PRES REMARKS SAVANNAH ARPT MOSUNNY 93 70 46 VRB7 29.97F HX 99 6HR MIN TEMP: 79; 6HR MAX TEMP: 93; HUNTER AAF SUNNY 91 75 60 NE8 29.94F HX 101 6HR MIN TEMP: 80; 6HR MAX TEMP: 91; FORT STEWART MOSUNNY 93 70 46 VRB1 29.94F HX 99 6HR MIN TEMP: 77; 6HR MAX TEMP: 93; 6HR PCP: TRACE; STATESBORO MOSUNNY 94 76 55 SW5 29.95F HX 106 SYLVANIA PTCLDY 94 75 54 CALM 29.97F HX 105 CLAXTON FAIR 91 73 55 NE3 29.96F HX 100 ...CSRA...CENTRAL AND FAR SOUTHEAST GEORGIA... CITY SKY/WX TMP DP RH WIND PRES REMARKS THOMSON SUNNY 96 76 52 SE5 29.99F HX 109 AUGUSTA-BUSH MOSUNNY 85 76 74 W7 29.95F THUNDER HX 94 6HR MIN TEMP: 77; 6HR MAX TEMP: 95; 6HR PCP: TRACE; AUGUSTA-DANIEL TSTM 83 73 72 S7 29.99F SWAINSBORO FAIR 91 77 62 SW3 29.97F HX 105 VIDALIA MOSUNNY 90 75 62 S5 29.97F HX 100 EASTMAN FAIR 94 75 52 SE3 29.98F HX 106 HAZLEHURST FAIR 91 73 56 CALM 29.96F HX 100 ALMA LGT RAIN 83 77 82 CALM 29.97F HX 92 6HR MIN TEMP: 77; 6HR MAX TEMP: 89; 6HR PCP: TRACE; WAYCROSS LGT RAIN 89 81 77 N6 29.96F HX 108 JESUP FAIR 97 75 49 E5 29.95F HX 109 BAXLEY FAIR 86 77 74 CALM 29.96F HX 97 BRUNSWICK MOSUNNY 90 73 58 E10 29.96F HX 98 SAINT SIMONS SUNNY 89 75 63 E13 29.96F HX 99 6HR MIN TEMP: 79; 6HR MAX TEMP: 89; $$ SCZ027-028-034-036>038-045-046-048>050-GAZ119-141-291900- ...LAKE AND SUPPLEMENTAL COASTAL OBSERVATIONS... STATION/POSITION TIME TEMP WIND PRES WAVE SWELL AIR SEA DIR/SP/G HT/PER HT/PER/DIR (UTC) (F) (DEG/KT/KT) (MB) (FT/S) (FT/S/D) UPR LAKE MARION NOT AVBL WINYAH BAY 1745 83 70/ 8 1015.0S LAKE MURRAY 1700 86 220/ 4/ 5 1014.9F ACE BASIN NERRS 1700 92 50/ 2 1016.0S FORT PULASKI 1800 84 N/A SAPELO ISLAND 1800 91 40/ 7 1015.0S $$ ANZ835-935-AMZ111-154-330-350-352-354-370-450-454-472-291900- ...C-MAN AND BUOY OBSERVATIONS... STATION/POSITION TIME TEMP WIND PRES WAVE SWELL AIR SEA DIR/SP/G HT/PER HT/PER/DIR (UTC) (F) (DEG/KT/KT) (MB) (FT/S) (FT/S/D) BUOY 41004 1750 83 85 20/ 14/ 16 1014.0F 3/ 7 2/ 7 BUOY 41008 1750 82 83 40/ 10/ 12 1015.0F 2/ 6 2/140/ 6 FOLLY BEACH CMAN 1800 85 80/ 10/ 11 1014.9F CAPERS NEARSHORE 1708 82 70/ 12/ 16 1015.4F FRIPP NEARSHORE 1700 85 80/ 10/ 12 1015.0F STATION/POSITION TIME TEMP WIND PRES WAVE SWELL AIR SEA DIR/SP/G HT/PER HT/PER/DIR (UTC) (F) (DEG/KT/KT) (MB) (FT/S) (FT/S/D) 5E ST. MARYS GA 1721 83 N/A 2/11 FRYING PAN BUOY 1750 83 84 30/ 14/ 16 1015.3F 4/ 7 2/120/10 BUOY 41025 NOT AVBL CAPE LOOKOUT NC 1800 82 60/ 13/ 14 1015.6S BUOY 41002 1750 83 82 210/ 12/ 14 1015.4R 5/ 6 3/ 50/10 BUOY 41010 1720 81 84 210/ 17/ 19 1013.8F ST AUGUSTINE FL 1800 81 83 30/ 12/ 12 1014.9F $$

USA.gov is the U.S. government's official web portal to all federal, state and local government web resources and services.